Regional Weather Roundup
Issued by NWS

Home | Current Version | Previous Version | Graphics & Text | Print | Product List | Glossary Off
Versions: 1 2 3 4 5 6 7 8 9 10 11 12 13 14 15 16 17 18 19 20 21 22 23 24 25 26 27 28 29 30 31 32 33 34 35 36 37 38 39 40 41 42 43 44 45 46 47 48 49 50

000
ASUS43 KMKX 261021
RWRWI

WISCONSIN REGIONAL WEATHER ROUNDUP
NATIONAL WEATHER SERVICE MILWAUKEE/SULLIVAN WI
500 AM CDT THU MAY 26 2016

NOTE: "FAIR" INDICATES FEW OR NO CLOUDS BELOW 12,000 FEET WITH NO
SIGNIFICANT WEATHER AND/OR OBSTRUCTIONS TO VISIBILITY.

WIZ001-002-006>008-014>016-023>028-261100-
NORTHWEST WISCONSIN

CITY           SKY/WX    TMP DP  RH WIND       PRES   REMARKS
SUPERIOR ARPT  FOG       41  41 100 NE5       29.82F VSB 3/4
ASHLAND        FOG       49  49 100 CALM      29.83R VSB 3/4
HAYWARD        CLOUDY    54  53  97 CALM      29.79F
SIREN          FOG       57  57  98 E3        29.77F VSB 3/4
CUMBERLAND     FOG       55  55 100 SE3       29.78F VSB 1/4
RICE LAKE      FOG       59  57  96 E3        29.80F VSB<1/4
CHETEK         FOG       59  59 100 CALM      29.78F VSB 1/2
LADYSMITH      FOG       59  59  97 E3        29.82F VSB 1/2
EAU CLAIRE     CLOUDY    56  56 100 CALM      29.78R
MENOMONIE      CLOUDY    60  60  99 S7        29.80R FOG
NEW RICHMOND   CLOUDY    61  57  87 SW22G32   29.74F
OSCEOLA        LGT RAIN  63  63 100 E6        29.78R
$$

WIZ003>005-009-010-017-018-261100-
NORTH CENTRAL WISCONSIN

CITY           SKY/WX    TMP DP  RH WIND       PRES   REMARKS
MANITOWISH WTR NOT AVBL
ARBOR VITAE    CLOUDY    62  60  95 CALM      29.82F
WOODRUFF       CLOUDY    62  60  95 CALM      29.82F
RHINELANDER    CLOUDY    61  60  97 W6        29.84S FOG
EAGLE RIVER      N/A     60  59  97 W5        29.83S
LAND O LAKES   CLOUDY    60  59  99 W5        29.84S
PHILLIPS       FOG       59  59 100 S3        29.81F VSB 1
TOMAHAWK       FOG       60  59  96 CALM      29.83F VSB 1
MEDFORD        FOG       60  60 100 CALM      29.82S VSB 1/4
MERRILL        FOG       63  63 100 CALM      29.84R VSB 1
$$

WIZ029-030-035-036-043>047-261100-
CENTRAL WISCONSIN

CITY           SKY/WX    TMP DP  RH WIND       PRES   REMARKS
WAUSAU         FOG       63  32  31 CALM      29.82R VSB 1
MOSINEE        FOG       61  61 100 CALM      29.83S VSB 1/4
MARSHFIELD     FOG       60  58  92 S3        29.81S VSB 1/4
STEVENS POINT  FOG       59  59 100 CALM      29.82F VSB 1/4
WAUPACA        FOG       62  61  97 CALM      29.82S VSB 1/4
WAUTOMA        NOT AVBL
WISC RAPIDS    FOG       60  58  92 CALM      29.82S VSB 1/4
CAMP DOUGLAS   CLOUDY    59  59 100 CALM      29.82R FOG
$$

WIZ011>013-019>022-031-037>040-048>050-261100-
NORTHEAST WISCONSIN

CITY           SKY/WX    TMP DP  RH WIND       PRES   REMARKS
ANTIGO         FOG       61  61 100 CALM      29.84S VSB 1/2
SHAWANO        FOG       63  62  96 CALM      29.83S VSB 1/4
OCONTO         CLOUDY   N/A N/A N/A CALM      29.83F VSB 1/2
STURGEON BAY   NOT AVBL
GREEN BAY      CLOUDY    61  59  93 CALM      29.83R FOG
MANITOWOC      FOG       57  56  96 S5        29.84F VSB 1/4
APPLETON       FOG       59  59 100 S3        29.82R VSB<1/4
CLINTONVILLE   FOG       61  61 100 CALM      29.83S VSB 1/4
OSHKOSH        CLOUDY    63  62  97 S9        29.82S FOG
$$

WIZ032>034-041-042-053>061-261100-
SOUTHWEST WISCONSIN

CITY           SKY/WX    TMP DP  RH WIND       PRES   REMARKS
LA CROSSE      CLOUDY    63  62  97 SE7       29.79R
SPARTA         CLOUDY    54  54 100 CALM      29.82R
VIROQUA        CLOUDY    64  61  88 SE7       29.82R
BOSCOBEL       CLOUDY    62  60  93 E3        29.82R FOG
PRAIRIE DU CHI CLOUDY    63  59  87 E6        29.80R
PLATTEVILLE    CLOUDY    68  62  81 S7        29.86R
$$

WIZ056-057-062-063-064-067-068-261100-
SOUTH CENTRAL WISCONSIN

CITY           SKY/WX    TMP DP  RH WIND       PRES   REMARKS
REEDSBURG      CLOUDY    60  60 100 E3        29.83R
BARABOO/DELLS  CLOUDY    61  60  94 S5        29.84R
LONE ROCK      CLOUDY    60  59  96 CALM      29.85R
MINERAL POINT  CLOUDY    64  61  88 SE7       29.86R
MADISON        CLOUDY    65  63  93 S6        29.83S
MIDDLETON      CLOUDY    65  63  90 S5        29.85R
WATERTOWN      CLEAR     61  61 100 CALM      29.84F FOG
MONROE         CLOUDY    64  61  88 S12       29.86R
JANESVILLE     CLOUDY    64  63  94 S3        29.85R FOG
$$

WIZ051-052-058>065-066-070>072-261100-
SOUTHEAST WISCONSIN

CITY           SKY/WX    TMP DP  RH WIND       PRES   REMARKS
MILWAUKEE      CLOUDY    64  63  96 S6        29.85F FOG
WAUKESHA       CLEAR     61  61 100 S7        29.86F FOG
MILWAUKEE/TIMM CLOUDY    63  59  88 S3        29.86F FOG
RACINE         FOG       58  57  97 S6        29.87F VSB 1/2
BURLINGTON     CLEAR     61  61 100 CALM      29.85F FOG
KENOSHA        CLEAR     64  62  93 S6        29.86F FOG
FOND DU LAC    CLOUDY    61  60  97 S5        29.84S FOG
SHEBOYGAN      FOG       59  58  96 S6        29.85S VSB 1/4
WEST BEND      FOG       59  59 100 CALM      29.85S VSB<1/4
JUNEAU         FOG       60  60  99 SE3       29.86S VSB<1/4
$$

LSZ147-162-261100-
LAKE SUPERIOR

STATION/POSITION TIME  TEMP    WIND        PRES    WAVE
                       AIR SEA DIR/SP/G            HT/PER
                 (UTC) (F)     (DEG/KT/KT) (MB)    (FT/S)
W MID LAKE BUOY  0950   41 38   20/  6/  8 1011.1R   2/ 4
DEVILS ISLAND    1000   41      50/ 11/ 12 1010.3F
SAXON HARBOR     0940   48      CALM  /  2 1009.5F
$$

LMZ867-665-643>646-261100-
LAKE MICHIGAN

STATION/POSITION TIME  TEMP    WIND        PRES    WAVE
                       AIR SEA DIR/SP/G            HT/PER
                 (UTC) (F)     (DEG/KT/KT) (MB)    (FT/S)
CHAMBERS ISLAND  0900   58     150/  3/  8 1010.8S
N MID LAKE BUOY  0950   50 45  190/ 10/ 12 1010.6F   1
NORTHPORT PIER   0900   57     160/  9/ 16 1010.8F
SISTER BAY       0904   55     160/ 11/ 15   N/A
ALGOMA LAKESHORE 0902          200/  7/  8   N/A
KEWAUNEE LAKESHO 0900   49     170/  5/  7 1010.2F
SHEBOYGAN LAKESH 1000   49     160/ 11/ 12 1011.3F
PORT WASHINGTON  0940   54     140/  1/  2 1011.9F
S MID LAKE BUOY  0950   54 49  160/ 12/ 14 1011.6F   1/ 3
KENOSHA   LAKESH 1000   56     180/ 11/ 13 1011.2F
$$

TC  - TEMPERATURE IN CELSIUS
VSB - VISIBILITY IN STATUTE MILES
WCI - WIND CHILL INDEX
HX  - HEAT INDEX





USA.gov is the U.S. government's official web portal to all federal, state and local government web resources and services.